This is the latest recevied weather packets stored in our database for station/object BV3BA-13. If no packets are shown the sender has not sent any weather packets the latest 10 day(s).
| Time | Temp. | Humidity | Pressure | Rain* | Wind** | Luminosity | Snow |
|---|---|---|---|---|---|---|---|
| 1778145424 | 26.11° C | 81% | 1007.2 hPa | 0 mm | - | - | - |
| 1778144823 | 26.11° C | 80% | 1007.1 hPa | 0 mm | - | - | - |
| 1778144224 | 26.67° C | 79% | 1007 hPa | 0 mm | - | - | - |
| 1778143624 | 26.67° C | 78% | 1007 hPa | 0 mm | - | - | - |
| 1778143023 | 26.67° C | 79% | 1007 hPa | 0 mm | - | - | - |
| 1778142423 | 27.22° C | 76% | 1006.9 hPa | 0 mm | - | - | - |
| 1778141825 | 28.33° C | 74% | 1006.9 hPa | 0 mm | - | - | - |
| 1778141223 | 28.33° C | 70% | 1006.8 hPa | 0 mm | - | - | - |
| 1778140623 | 27.78° C | 69% | 1006.7 hPa | 0 mm | - | - | - |
| 1778140023 | 28.33° C | 70% | 1006.8 hPa | 0 mm | - | - | - |
| 1778139423 | 28.33° C | 70% | 1006.8 hPa | 0 mm | - | - | - |
| 1778138823 | 28.33° C | 73% | 1006.8 hPa | 0 mm | - | - | - |
| 1778138223 | 28.33° C | 73% | 1006.8 hPa | 0 mm | - | - | - |
| 1778137623 | 28.33° C | 75% | 1006.8 hPa | 0 mm | - | - | - |
| 1778137024 | 28.89° C | 71% | 1006.9 hPa | 0 mm | - | - | - |
| 1778136424 | 29.44° C | 71% | 1006.8 hPa | 0 mm | - | - | - |
| 1778135824 | 28.89° C | 73% | 1006.8 hPa | 0 mm | - | - | - |
| 1778135223 | 28.89° C | 73% | 1007 hPa | 0 mm | - | - | - |
| 1778134624 | 27.78° C | 75% | 1007.1 hPa | 0 mm | - | - | - |
| 1778134024 | 27.78° C | 74% | 1007.2 hPa | 0 mm | - | - | - |
| 1778133424 | 27.78° C | 75% | 1007.3 hPa | 0 mm | - | - | - |
| 1778132824 | 27.22° C | 75% | 1007.5 hPa | 0 mm | - | - | - |
| 1778132224 | 27.78° C | 76% | 1007.6 hPa | 0 mm | - | - | - |
| 1778131624 | 27.78° C | 76% | 1007.8 hPa | 0 mm | - | - | - |
| 1778131023 | 27.78° C | 74% | 1007.9 hPa | 0 mm | - | - | - |
* Rain latest hour (hover to see other rain measurements)
** Current wind speed in m/s (hover to see current wind gust speed)